Weather History for KMCK - September, 2014

Change the Weather History Date:

Tuesday, September 9, 2014

  Actual Average Record
Temperature  
Mean Temperature 72 °F 67 °F  
Max Temperature 81 °F 82 °F 102 °F (1955)
Min Temperature 63 °F 53 °F 38 °F (1929)
Cooling Degree Days 6    
Growing Degree Days 22 (Base 50)    
Moisture  
Dew Point 64 °F    
Average Humidity 80    
Maximum Humidity 90    
Minimum Humidity 65    
Precipitation  
Precipitation 0.06 in 0.05 in 0.89 in (2006)
Month to date precipitation 0.48 0.46  
Year to date precipitation 21.43 18.17  
Sea Level Pressure  
Sea Level Pressure 29.71 in    
Wind  
Wind Speed 7 mph (NE)    
Max Wind Speed 17 mph    
Max Gust Speed -    
Visibility 10 miles    
Events Rain , Thunderstorm    
T = Trace of Precipitation, MM = Missing Value Source: NWS Daily Summary

Daily Weather History Graph

Daily Weather History Graph

Search for Another Location

Airport or City:

Trip Planner

Search our weather history database for the weather conditions in past years. The results will help you decide how hot, cold, wet, or windy it might be!

Date:

Astronomy

Sep. 09, 2014 Rise Set
Actual Time 7:17 AM CDT 8:01 PM CDT
Civil Twilight 6:50 AM CDT 8:28 PM CDT
Nautical Twilight 6:17 AM CDT 9:00 PM CDT
Astronomical Twilight 5:43 AM CDT 9:34 PM CDT
Moon 8:21 PM CDT (9/9) 7:56 AM CDT (9/9)
Length of Visible Light 13h 38m
Length of Day
12h 43m
Waxing Gibbous, 99% of the Moon is Illuminated
Sep 9
Waxing Gibbous
Sep 15
Last Quarter
Sep 24
New
Oct 1
First Quarter
Oct 8
Full

Hourly Weather History & Observations

Time (CDT) Temp. Heat Index Dew Point Humidity Pressure Visibility Wind Dir Wind Speed Gust Speed Precip Events Conditions
12:53 AM 64.9 °F - 59.0 °F 81% 29.77 in 10.0 mi West 8.1 mph - N/A   Clear
1:53 AM 64.9 °F - 57.9 °F 78% 29.75 in 10.0 mi Calm Calm - N/A   Clear
2:53 AM 63.0 °F - 59.0 °F 87% 29.75 in 10.0 mi Calm Calm - N/A   Clear
3:53 AM 64.0 °F - 60.1 °F 87% 29.74 in 10.0 mi Calm Calm - N/A   Mostly Cloudy
4:53 AM 64.9 °F - 61.0 °F 87% 29.71 in 10.0 mi Variable 3.5 mph - N/A   Overcast
5:53 AM 64.9 °F - 60.1 °F 84% 29.69 in 10.0 mi ENE 6.9 mph - N/A   Scattered Clouds
6:53 AM 66.0 °F - 61.0 °F 84% 29.67 in 10.0 mi East 4.6 mph - N/A   Scattered Clouds
7:02 AM 66.0 °F - 61.0 °F 84% 29.78 in 10.0 mi Variable 5.8 mph - N/A Thunderstorm Thunderstorm
7:24 AM 70.0 °F - 61.0 °F 73% 29.80 in 7.0 mi North 10.4 mph - 0.01 in Rain , Thunderstorm Thunderstorms and Rain
7:42 AM 66.9 °F - 62.1 °F 84% 29.79 in 4.0 mi NE 10.4 mph - 0.04 in Rain , Thunderstorm Light Rain
7:51 AM 66.2 °F - 60.8 °F 83% 29.77 in 10.0 mi East 12.7 mph - 0.04 in Rain Light Rain
7:53 AM 66.0 °F - 61.0 °F 84% 29.70 in 10.0 mi East 12.7 mph - 0.04 in Rain Light Rain
8:53 AM 68.0 °F - 62.1 °F 81% 29.69 in 10.0 mi East 9.2 mph - 0.00 in   Mostly Cloudy
9:53 AM 70.0 °F - 63.0 °F 78% 29.71 in 10.0 mi ESE 8.1 mph - N/A   Mostly Cloudy
10:53 AM 71.1 °F - 64.0 °F 78% 29.69 in 10.0 mi East 12.7 mph - N/A   Mostly Cloudy
11:53 AM 72.0 °F - 64.9 °F 78% 29.69 in 10.0 mi ENE 11.5 mph - 0.00 in   Mostly Cloudy
12:53 PM 75.0 °F - 63.0 °F 66% 29.68 in 10.0 mi East 17.3 mph - N/A   Clear
2:53 PM 77.0 °F - 66.9 °F 71% 29.65 in 10.0 mi East 11.5 mph - N/A   Mostly Cloudy
3:29 PM 79.0 °F - 68.0 °F 69% 29.71 in 10.0 mi ENE 6.9 mph - N/A   Mostly Cloudy
3:53 PM 80.6 °F 83.2 °F 68.0 °F 65% 29.70 in 10.0 mi East 9.2 mph - N/A   Scattered Clouds
4:53 PM 80.1 °F 82.7 °F 68.0 °F 67% 29.62 in 10.0 mi ENE 8.1 mph - N/A   Clear
5:53 PM 78.1 °F - 68.0 °F 71% 29.62 in 10.0 mi North 6.9 mph - N/A   Clear
6:53 PM 73.9 °F - 68.0 °F 82% 29.65 in 9.0 mi NNW 5.8 mph - N/A   Mostly Cloudy
7:53 PM 73.0 °F - 68.0 °F 84% 29.64 in 10.0 mi NNW 11.5 mph - N/A   Mostly Cloudy
8:53 PM 72.0 °F - 66.0 °F 81% 29.64 in 10.0 mi NNW 9.2 mph - N/A   Clear
9:53 PM 71.1 °F - 66.0 °F 84% 29.66 in 10.0 mi North 6.9 mph - N/A   Partly Cloudy
10:53 PM 69.1 °F - 64.9 °F 87% 29.69 in 10.0 mi North 9.2 mph - 0.00 in Rain Light Rain
11:10 PM 69.1 °F - 64.9 °F 87% 29.75 in 7.0 mi North 8.1 mph - 0.01 in Rain Rain
11:24 PM 68.0 °F - 64.9 °F 90% 29.74 in 10.0 mi NE 11.5 mph - 0.02 in Rain Light Rain
11:53 PM 68.0 °F - 64.9 °F 90% 29.72 in 10.0 mi NNE 11.5 mph - 0.02 in   Mostly Cloudy